Juan Pablo Gómez

Olheiro - Talleres
17 Jul 2027
Sábado
Processo

Personalidade

Adaptabilidade (16) Ambição (15) Controvérsia (3) Lealdade (15) Pressão (5) Profissionalismo (15) Espírito Esportivo (12) Temperamento (10)

Perfil

Estilo de Treinamento Democrático
Licença Continental B
Determinação 7
Gestão de Pessoas 8
Motivação 7
Disciplina 12
Satisfação no Trabalho
55%
Fadiga
0%
Função Olheiro
Salário 15.3K p/s
Contrato 14.03.2030

Desempenho

Comportamento Bom
Eficácia do Treinamento
28%
Desenvolvimento do Jogador
50%
Prevenção de Lesões
65%
Implementação Tática
60%

Eventos Recentes

Participou de uma reunião de recrutamento 14d atrás
Participou de uma reunião de recrutamento 21d atrás
Participou de uma reunião de recrutamento 28d atrás
Participou de uma reunião de recrutamento 35d atrás
Participou de uma reunião de recrutamento 42d atrás
Participou de uma reunião de recrutamento 42d atrás
Participou de uma reunião de recrutamento 49d atrás
Participou de uma reunião de recrutamento 56d atrás

Monitorando agora

62
Jogador Clube Status Habilidade Confiança Observado Última observação Último voto
Petar Stanić Ludogorets Ativo 140 / 140 40% 1 30.11.2026 -
Erik Lira Cruz Azul Ativo 130 / 132 40% 1 30.11.2026 -
Ezequiel Centurión River Plate Ativo 124 / 117 40% 2 27.11.2026 -
Lukas Jensen Millwall Ativo 137 / 118 40% 1 27.11.2026 -
Fernando Mimbacas Juventud Ativo 105 / 122 40% 1 26.11.2026 -
Enzo Cabrera AE Kition Ativo 133 / 128 40% 1 26.11.2026 -
Daniel Muñoz Nottingham Forest Ativo 161 / 146 40% 1 26.11.2026 -
Lucas Torreira Galatasaray Ativo 140 / 149 40% 1 26.11.2026 -
Facundo Cambeses Racing Club Ativo 136 / 140 40% 2 25.11.2026 -
Marin Benko Zadar Ativo 120 / 109 40% 1 22.11.2026 -
Dayne St. Clair Inter Miami CF Ativo 123 / 106 40% 1 22.11.2026 -
Iván Arboleda Sarmiento Ativo 131 / 116 40% 2 21.11.2026 -
Josh Keeley Luton Town Ativo 140 / 110 40% 1 19.11.2026 -
Gonzalo Montiel River Plate Ativo 145 / 137 40% 3 16.11.2026 -
Francisco Álvarez Argentinos Juniors Ativo 135 / 122 40% 1 16.11.2026 -
Mauro Arambarri River Plate Ativo 151 / 159 40% 2 14.11.2026 -
Kenny Tete Fulham Ativo 134 / 144 40% 1 14.11.2026 -
Tomás Marchiori Vélez Ativo 124 / 134 40% 1 14.11.2026 -
Nicolás Domínguez Nottingham Forest Ativo 155 / 133 40% 3 12.11.2026 -
Saša Lukić Ipswich Town Ativo 128 / 129 40% 1 12.11.2026 -
Santiago González Tigre Ativo 127 / 142 40% 1 11.11.2026 -
Florentino Luís Ipswich Town Ativo 138 / 157 40% 1 09.11.2026 -
Santiago Núñez Estudiantes Ativo 123 / 130 40% 1 08.11.2026 -
Valentín Barco Chelsea Ativo 120 / 138 40% 1 08.11.2026 -
Facundo Mura Inter Miami CF Ativo 130 / 119 40% 1 07.11.2026 -
Emanuel Mammana Vélez Ativo 126 / 123 40% 1 07.11.2026 -
Marcos Senesi Tottenham Ativo 128 / 145 40% 1 06.11.2026 -
Ayrton Costa Boca Juniors Ativo 135 / 121 40% 2 05.11.2026 -
Joaquín García Vélez Ativo 139 / 120 40% 1 04.11.2026 -
Lucas Carrizo Newell's Old Boys Ativo 114 / 118 40% 1 04.11.2026 -
Dean Henderson Crystal Palace Ativo 159 / 167 40% 1 01.11.2026 -
Anthony Patterson Wrexham Ativo 131 / 124 40% 1 01.11.2026 -
Diego Enríquez Sporting Cristal Ativo 122 / 139 40% 1 31.10.2026 -
Nicolás Tripichio San Lorenzo Ativo 130 / 117 40% 1 27.10.2026 -
Nazareno Colombo Racing Club Ativo 128 / 138 40% 1 27.10.2026 -
Roberto Ramírez Godoy Cruz Ativo 123 / 114 40% 2 26.10.2026 -
Rodrigo Morínigo Libertad Ativo 105 / 132 40% 1 26.10.2026 -
Álvaro Fernández Deportivo La Coruña Ativo 152 / 120 40% 1 21.10.2026 Mais informações
César Ibáñez Huracán Ativo 112 / 113 40% 1 19.10.2026 -
Juan Carlos Portillo River Plate Ativo 132 / 142 40% 1 17.10.2026 -
Lucas Bruera Carabobo Ativo 119 / 130 40% 2 13.10.2026 -
Nelson Insfrán Gimnasia La Plata Ativo 109 / 107 40% 1 13.10.2026 -
Marco Di Cesare Racing Club Ativo 131 / 121 40% 1 06.10.2026 -
Adonis Frías Atlas Ativo 140 / 116 40% 2 05.10.2026 -
Victor Aznar Cádiz Ativo 113 / 101 40% 1 05.10.2026 -
Franco Ibarra Rosario Central Ativo 139 / 139 40% 1 05.10.2026 -
Nicolás Campisi Sportivo Luqueno Ativo 116 / 131 40% 1 29.09.2026 -
Andrés Gudiño Cruz Azul Ativo 119 / 137 40% 1 29.09.2026 -
Sebastián Meza Huracán Ativo 118 / 113 40% 1 24.09.2026 -
Geovanni Banguera Deportivo Pasto Ativo 123 / 116 40% 1 21.09.2026 -
Mauro Silveira Junior Ativo 121 / 106 40% 1 19.09.2026 -
Renato Solís Sporting Cristal Ativo 110 / 114 40% 1 13.09.2026 -
Gerardo Arteaga Monterrey Ativo 126 / 144 40% 1 10.09.2026 -
Alan Varela Porto Ativo 145 / 153 40% 1 13.08.2026 -
Luis Romo Tigres Ativo 132 / 124 40% 1 10.08.2026 -
Joaquín Pereyra Minnesota United FC Ativo 112 / 107 40% 1 08.08.2026 -
Rodrigo Echeverría Leon Ativo 132 / 119 40% 1 08.08.2026 -
Jorge Rodríguez Monterrey Ativo 107 / 139 40% 1 08.08.2026 -
Juninho Pumas UNAM Ativo 138 / 118 40% 1 04.08.2026 -
Agustín Palavecino Cruz Azul Ativo 122 / 145 40% 1 04.08.2026 -
Carlos Álvarez Club America Ativo 139 / 120 40% 1 01.08.2026 -
Arnau Martínez Valencia Ativo 142 / 164 40% 1 01.08.2026 -